Location: Wangen+im+Allg�u
(47.7098°N, 9.8383°E)
Time: 11:30:26
(UTC+01:00)

ISS - Pass Details

Date: 10 January 2018
Orbit: 402 x 407 km, 51.6° (Epoch: 22 January)

Event Time Altitude Azimuth Distance (km) Brightness Sun altitude
Exits shadow 06:31:12 37° 303° (WNW) 657 -3.3 -15.6°
Maximum altitude 06:32:22 75° 21° (NNE) 425 -3.8 -15.4°
Drops below altitude 10° 06:35:39 10° 108° (ESE) 1,466 0.4 -14.8°
Sets 06:37:44 0° 110° (ESE) 2,325 2.0 -14.5°
